This is the latest recevied weather packets stored in our database for station/object KA8OAD-10. If no packets are shown the sender has not sent any weather packets the latest 10 day(s).
| Time | Temp. | Humidity | Pressure | Rain* | Wind** | Luminosity | Snow |
|---|---|---|---|---|---|---|---|
| 1777930953 | 22.22° C | 52% | 1003 hPa | 0 mm | - | 120 W/m² | - |
| 1777930652 | 22.22° C | 51% | 1003 hPa | 0 mm | - | 120 W/m² | - |
| 1777930052 | 22.22° C | 51% | 1003.1 hPa | 0 mm | - | 111 W/m² | - |
| 1777929751 | 22.22° C | 52% | 1003.1 hPa | 0 mm | - | 123 W/m² | - |
| 1777929451 | 22.22° C | 51% | 1003.1 hPa | 0 mm | - | 139 W/m² | - |
| 1777928252 | 22.22° C | 52% | 1003.3 hPa | 0 mm | - | 121 W/m² | - |
| 1777927651 | 22.22° C | 50% | 1003.4 hPa | 0 mm | - | 113 W/m² | - |
| 1777927351 | 22.78° C | 49% | 1003.5 hPa | 0 mm | - | 123 W/m² | - |
| 1777926749 | 22.22° C | 50% | 1003.4 hPa | 0 mm | - | 72 W/m² | - |
| 1777926449 | 22.22° C | 50% | 1003.4 hPa | 0 mm | - | 86 W/m² | - |
| 1777926153 | 22.22° C | 48% | 1003.5 hPa | 0 mm | - | 84 W/m² | - |
| 1777925852 | 22.22° C | 48% | 1003.7 hPa | 0 mm | - | 118 W/m² | - |
| 1777925552 | 22.22° C | 50% | 1003.6 hPa | 0 mm | - | 84 W/m² | - |
| 1777925251 | 22.22° C | 49% | 1003.5 hPa | 0 mm | - | 76 W/m² | - |
| 1777924950 | 22.22° C | 49% | 1003.8 hPa | 0 mm | - | 83 W/m² | - |
| 1777924349 | 22.22° C | 50% | 1003.8 hPa | 0 mm | - | 69 W/m² | - |
| 1777924053 | 22.22° C | 48% | 1003.9 hPa | 0 mm | - | 70 W/m² | - |
| 1777923752 | 22.22° C | 49% | 1004 hPa | 0 mm | - | 81 W/m² | - |
| 1777922851 | 22.22° C | 49% | 1004.3 hPa | 0 mm | - | 79 W/m² | - |
| 1777922551 | 22.78° C | 47% | 1004.4 hPa | 0 mm | - | 842 W/m² | - |
| 1777921352 | 22.78° C | 48% | 1004.5 hPa | 0 mm | - | 824 W/m² | - |
| 1777921053 | 22.78° C | 48% | 1004.6 hPa | 0 mm | - | 821 W/m² | - |
| 1777920752 | 23.33° C | 48% | 1004.7 hPa | 0 mm | - | 840 W/m² | - |
| 1777920451 | 22.78° C | 47% | 1004.8 hPa | 0 mm | - | 842 W/m² | - |
| 1777920150 | 22.78° C | 48% | 1004.7 hPa | 0 mm | - | 838 W/m² | - |
* Rain latest hour (hover to see other rain measurements)
** Current wind speed in m/s (hover to see current wind gust speed)